Retour au catalogue

SCOUT G-1 DEB

ActifPO
NORAD 43331·DEBRIS·🇺🇸 United States

Lancé Apr 26, 1988 depuis Vandenberg Space Force Base

Loading…

Prochains Passages (prochaines 24 heures)

TLE

VieillissantSource: Space-Track

Époque: Sep 9, 2026, 02:41 UTC

1 43331U 88033M   26252.11218956  .00000341  00000-0  61076-3 0  9997
2 43331  90.3256  21.2821 0168474 288.7760  69.5169 13.35212085247880

Suivez SCOUT G-1 DEB en temps réel avec AllMySat

Download on the App Store